contact: severine.martini@mio.osupytheas.fr, dominique.lefevre@mio.osupytheas.fr
Project:EMSO Ligure-ouest http://www.emso-fr.org/EMSO-France
Sensor Microcat Sea-Bird SBE37 SMP,  Serial 57510 
DOI : "https://doi.org/10.17882/97948" 
Title:EMSO Ligure Ouest : Data Bathybot capteur Microcat - deploiement 2023-04-28
Datetime,Profondeur,Latitude,Longitude,Temperature,Conductivite,Pression,Salinite
time,m,degree_north,degree_east,degree_C,S/m,db,PSU 
2023-11-01T00:00:49,2420,42.8014,5.9826,13.2978,4.59944,2453.649,38.4903
2023-11-01T00:03:49,2420,42.8014,5.9826,13.2978,4.59949,2453.627,38.4909
2023-11-01T00:06:49,2420,42.8014,5.9826,13.2977,4.59951,2453.649,38.4911
2023-11-01T00:09:49,2420,42.8014,5.9826,13.2979,4.59950,2453.649,38.4908
2023-11-01T00:12:49,2420,42.8014,5.9826,13.2975,4.59948,2453.649,38.4911
2023-11-01T00:15:49,2420,42.8014,5.9826,13.2975,4.59948,2453.649,38.4911
2023-11-01T00:18:49,2420,42.8014,5.9826,13.2978,4.59951,2453.649,38.4910
2023-11-01T00:21:50,2420,42.8014,5.9826,13.2978,4.59951,2453.627,38.4910
2023-11-01T00:24:49,2420,42.8014,5.9826,13.2974,4.59949,2453.635,38.4913
2023-11-01T00:27:49,2420,42.8014,5.9826,13.2979,4.59945,2453.649,38.4903
2023-11-01T00:30:49,2420,42.8014,5.9826,13.2979,4.59945,2453.627,38.4904
2023-11-01T00:33:49,2420,42.8014,5.9826,13.2976,4.59945,2453.649,38.4906
2023-11-01T00:36:49,2420,42.8014,5.9826,13.2976,4.59946,2453.627,38.4908
2023-11-01T00:39:49,2420,42.8014,5.9826,13.2979,4.59946,2453.612,38.4905
2023-11-01T00:42:49,2420,42.8014,5.9826,13.2978,4.59947,2453.604,38.4907
2023-11-01T00:45:49,2420,42.8014,5.9826,13.2973,4.59942,2453.627,38.4907
2023-11-01T00:48:49,2420,42.8014,5.9826,13.2978,4.59951,2453.627,38.4911
2023-11-01T00:51:49,2420,42.8014,5.9826,13.2978,4.59943,2453.604,38.4903
2023-11-01T00:54:49,2420,42.8014,5.9826,13.2975,4.59943,2453.604,38.4906
2023-11-01T00:57:49,2420,42.8014,5.9826,13.2973,4.59951,2453.590,38.4915
2023-11-01T01:00:49,2420,42.8014,5.9826,13.2975,4.59950,2453.612,38.4912
2023-11-01T01:03:49,2420,42.8014,5.9826,13.2978,4.42259,2453.627,36.8265
2023-11-01T01:06:49,2420,42.8014,5.9826,13.2975,4.42541,2453.627,36.8532
2023-11-01T01:09:49,2420,42.8014,5.9826,13.2975,4.42575,2453.590,36.8564
2023-11-01T01:12:49,2420,42.8014,5.9826,13.2976,4.42507,2453.604,36.8500
2023-11-01T01:15:49,2420,42.8014,5.9826,13.2980,4.42633,2453.582,36.8614
2023-11-01T01:18:49,2420,42.8014,5.9826,13.2974,4.42643,2453.582,36.8629
2023-11-01T01:21:49,2420,42.8014,5.9826,13.2978,4.42691,2453.604,36.8671
2023-11-01T01:24:49,2420,42.8014,5.9826,13.2977,4.42686,2453.604,36.8667
2023-11-01T01:27:49,2420,42.8014,5.9826,13.2974,4.42686,2453.590,36.8669
2023-11-01T01:30:49,2420,42.8014,5.9826,13.2975,4.42635,2453.582,36.8621
2023-11-01T01:33:49,2420,42.8014,5.9826,13.2981,4.42506,2453.604,36.8494
2023-11-01T01:36:49,2420,42.8014,5.9826,13.2979,4.42667,2453.604,36.8646
2023-11-01T01:39:49,2420,42.8014,5.9826,13.2977,4.42598,2453.604,36.8584
2023-11-01T01:42:49,2420,42.8014,5.9826,13.2978,4.42636,2453.604,36.8619
2023-11-01T01:45:49,2420,42.8014,5.9826,13.2978,4.42650,2453.604,36.8631
2023-11-01T01:48:49,2420,42.8014,5.9826,13.2978,4.42656,2453.627,36.8637
2023-11-01T01:51:49,2420,42.8014,5.9826,13.2975,4.42645,2453.604,36.8629
2023-11-01T01:54:49,2420,42.8014,5.9826,13.2977,4.42587,2453.604,36.8574
2023-11-01T01:57:49,2420,42.8014,5.9826,13.2975,4.42572,2453.604,36.8561
2023-11-01T02:00:49,2420,42.8014,5.9826,13.2977,4.42579,2453.582,36.8567
2023-11-01T02:03:49,2420,42.8014,5.9826,13.2980,4.42601,2453.582,36.8584
2023-11-01T02:06:49,2420,42.8014,5.9826,13.2973,4.42606,2453.596,36.8596
2023-11-01T02:09:49,2420,42.8014,5.9826,13.2977,4.42635,2453.582,36.8619
2023-11-01T02:12:49,2420,42.8014,5.9826,13.2976,4.42680,2453.604,36.8661
2023-11-01T02:15:49,2420,42.8014,5.9826,13.2975,4.42614,2453.582,36.8600
2023-11-01T02:18:49,2420,42.8014,5.9826,13.2979,4.42679,2453.619,36.8657
2023-11-01T02:21:49,2420,42.8014,5.9826,13.2978,4.42593,2453.582,36.8578
2023-11-01T02:24:49,2420,42.8014,5.9826,13.2978,4.42605,2453.604,36.8589
2023-11-01T02:27:49,2420,42.8014,5.9826,13.2978,4.42635,2453.604,36.8617
2023-11-01T02:30:49,2420,42.8014,5.9826,13.2977,4.42705,2453.582,36.8684
2023-11-01T02:33:49,2420,42.8014,5.9826,13.2978,4.42502,2453.582,36.8493
2023-11-01T02:36:49,2420,42.8014,5.9826,13.2977,4.42504,2453.604,36.8495
2023-11-01T02:39:49,2420,42.8014,5.9826,13.2979,4.42616,2453.582,36.8599
2023-11-01T02:42:49,2420,42.8014,5.9826,13.2976,4.42551,2453.604,36.8540
2023-11-01T02:45:49,2420,42.8014,5.9826,13.2975,4.42669,2453.582,36.8652
2023-11-01T02:48:49,2420,42.8014,5.9826,13.2978,4.42579,2453.604,36.8565
2023-11-01T02:51:49,2420,42.8014,5.9826,13.2979,4.42646,2453.619,36.8626
2023-11-01T02:54:49,2420,42.8014,5.9826,13.2979,4.42525,2453.604,36.8514
2023-11-01T02:57:48,2420,42.8014,5.9826,13.2978,4.42596,2453.590,36.8581
2023-11-01T03:00:49,2420,42.8014,5.9826,13.2979,4.42574,2453.582,36.8559
2023-11-01T03:03:49,2420,42.8014,5.9826,13.2979,4.42527,2453.559,36.8516
2023-11-01T03:06:49,2420,42.8014,5.9826,13.2975,4.42619,2453.582,36.8605
2023-11-01T03:09:49,2420,42.8014,5.9826,13.2978,4.42542,2453.604,36.8530
2023-11-01T03:12:49,2420,42.8014,5.9826,13.2977,4.42506,2453.582,36.8498
2023-11-01T03:15:49,2420,42.8014,5.9826,13.2978,4.42561,2453.604,36.8549
2023-11-01T03:18:49,2420,42.8014,5.9826,13.2979,4.42528,2453.604,36.8516
2023-11-01T03:21:49,2420,42.8014,5.9826,13.2976,4.42544,2453.604,36.8534
2023-11-01T03:24:49,2420,42.8014,5.9826,13.2979,4.42488,2453.596,36.8478
2023-11-01T03:27:49,2420,42.8014,5.9826,13.2979,4.42400,2453.567,36.8397
2023-11-01T03:30:49,2420,42.8014,5.9826,13.2978,4.42405,2453.604,36.8402
2023-11-01T03:33:49,2420,42.8014,5.9826,13.2974,4.42427,2453.590,36.8426
2023-11-01T03:36:49,2420,42.8014,5.9826,13.2979,4.42338,2453.604,36.8337
2023-11-01T03:39:49,2420,42.8014,5.9826,13.2978,4.42376,2453.596,36.8375
2023-11-01T03:42:49,2420,42.8014,5.9826,13.2977,4.42315,2453.582,36.8319
2023-11-01T03:45:49,2420,42.8014,5.9826,13.2978,4.42333,2453.590,36.8334
2023-11-01T03:48:49,2420,42.8014,5.9826,13.2978,4.42351,2453.604,36.8351
2023-11-01T03:51:49,2420,42.8014,5.9826,13.2981,4.42318,2453.544,36.8318
2023-11-01T03:54:49,2420,42.8014,5.9826,13.2979,4.42296,2453.574,36.8299
2023-11-01T03:57:49,2420,42.8014,5.9826,13.2976,4.42288,2453.596,36.8294
2023-11-01T04:00:49,2420,42.8014,5.9826,13.2975,4.42179,2453.582,36.8193
2023-11-01T04:03:49,2420,42.8014,5.9826,13.2977,4.42259,2453.582,36.8266
2023-11-01T04:06:49,2420,42.8014,5.9826,13.2979,4.42269,2453.627,36.8273
2023-11-01T04:09:49,2420,42.8014,5.9826,13.2980,4.42243,2453.604,36.8248
2023-11-01T04:12:49,2420,42.8014,5.9826,13.2978,4.42260,2453.604,36.8266
2023-11-01T04:15:49,2420,42.8014,5.9826,13.2978,4.42257,2453.604,36.8263
2023-11-01T04:18:49,2420,42.8014,5.9826,13.2977,4.42179,2453.604,36.8191
2023-11-01T04:21:49,2420,42.8014,5.9826,13.2978,4.42216,2453.604,36.8224
2023-11-01T04:24:49,2420,42.8014,5.9826,13.2975,4.42164,2453.582,36.8179
2023-11-01T04:27:49,2420,42.8014,5.9826,13.2979,4.42162,2453.627,36.8173
2023-11-01T04:30:49,2420,42.8014,5.9826,13.2976,4.42267,2453.627,36.8274
2023-11-01T04:33:49,2420,42.8014,5.9826,13.2976,4.42219,2453.627,36.8229
2023-11-01T04:36:49,2420,42.8014,5.9826,13.2975,4.42293,2453.604,36.8299
2023-11-01T04:39:49,2420,42.8014,5.9826,13.2975,4.42267,2453.582,36.8275
2023-11-01T04:42:49,2420,42.8014,5.9826,13.2978,4.42192,2453.619,36.8202
2023-11-01T04:45:49,2420,42.8014,5.9826,13.2979,4.42131,2453.604,36.8144
2023-11-01T04:48:49,2420,42.8014,5.9826,13.2980,4.42126,2453.627,36.8138
2023-11-01T04:51:49,2420,42.8014,5.9826,13.2979,4.42077,2453.604,36.8093
2023-11-01T04:54:49,2420,42.8014,5.9826,13.2979,4.42236,2453.604,36.8243
2023-11-01T04:57:49,2420,42.8014,5.9826,13.2979,4.42262,2453.627,36.8266
2023-11-01T05:00:49,2420,42.8014,5.9826,13.2975,4.42262,2453.627,36.8270
2023-11-01T05:03:49,2420,42.8014,5.9826,13.2978,4.42320,2453.627,36.8321
2023-11-01T05:06:49,2420,42.8014,5.9826,13.2976,4.42347,2453.604,36.8349
2023-11-01T05:09:49,2420,42.8014,5.9826,13.2978,4.42256,2453.612,36.8263
2023-11-01T05:12:49,2420,42.8014,5.9826,13.2979,4.42223,2453.590,36.8230
2023-11-01T05:15:49,2420,42.8014,5.9826,13.2977,4.42281,2453.604,36.8287
2023-11-01T05:18:49,2420,42.8014,5.9826,13.2977,4.42266,2453.649,36.8272
2023-11-01T05:21:49,2420,42.8014,5.9826,13.2976,4.42304,2453.649,36.8309
2023-11-01T05:24:49,2420,42.8014,5.9826,13.2975,4.42333,2453.604,36.8337
2023-11-01T05:27:49,2420,42.8014,5.9826,13.2978,4.42395,2453.649,36.8392
2023-11-01T05:30:49,2420,42.8014,5.9826,13.2979,4.42228,2453.649,36.8235
2023-11-01T05:33:49,2420,42.8014,5.9826,13.2978,4.42365,2453.657,36.8365
2023-11-01T05:36:49,2420,42.8014,5.9826,13.2977,4.42260,2453.672,36.8267
2023-11-01T05:39:49,2420,42.8014,5.9826,13.2979,4.42375,2453.649,36.8373
2023-11-01T05:42:49,2420,42.8014,5.9826,13.2979,4.42367,2453.695,36.8365
2023-11-01T05:45:49,2420,42.8014,5.9826,13.2976,4.42278,2453.672,36.8284
2023-11-01T05:48:49,2420,42.8014,5.9826,13.2976,4.42326,2453.672,36.8329
2023-11-01T05:51:49,2420,42.8014,5.9826,13.2981,4.42307,2453.687,36.8307
2023-11-01T05:54:49,2420,42.8014,5.9826,13.2980,4.42355,2453.695,36.8352
2023-11-01T05:57:49,2420,42.8014,5.9826,13.2976,4.42371,2453.709,36.8372
2023-11-01T06:00:49,2420,42.8014,5.9826,13.2975,4.42380,2453.695,36.8381
2023-11-01T06:03:49,2420,42.8014,5.9826,13.2975,4.42330,2453.672,36.8334
2023-11-01T06:06:49,2420,42.8014,5.9826,13.2979,4.42396,2453.695,36.8392
2023-11-01T06:09:49,2420,42.8014,5.9826,13.2978,4.42438,2453.717,36.8432
2023-11-01T06:12:49,2420,42.8014,5.9826,13.2978,4.42368,2453.717,36.8366
2023-11-01T06:15:49,2420,42.8014,5.9826,13.2975,4.42334,2453.702,36.8337
2023-11-01T06:18:49,2420,42.8014,5.9826,13.2974,4.42411,2453.702,36.8411
2023-11-01T06:21:49,2420,42.8014,5.9826,13.2978,4.42422,2453.725,36.8417
2023-11-01T06:24:49,2420,42.8014,5.9826,13.2975,4.42353,2453.717,36.8355
2023-11-01T06:27:49,2420,42.8014,5.9826,13.2978,4.42344,2453.717,36.8345
2023-11-01T06:30:49,2420,42.8014,5.9826,13.2976,4.42451,2453.717,36.8446
2023-11-01T06:33:49,2420,42.8014,5.9826,13.2978,4.42478,2453.740,36.8470
2023-11-01T06:36:49,2420,42.8014,5.9826,13.2978,4.42448,2453.695,36.8442
2023-11-01T06:39:49,2420,42.8014,5.9826,13.2977,4.42480,2453.740,36.8473
2023-11-01T06:42:49,2420,42.8014,5.9826,13.2978,4.42472,2453.740,36.8464
2023-11-01T06:45:49,2420,42.8014,5.9826,13.2979,4.42523,2453.725,36.8511
2023-11-01T06:48:49,2420,42.8014,5.9826,13.2978,4.42480,2453.702,36.8472
2023-11-01T06:51:49,2420,42.8014,5.9826,13.2976,4.42460,2453.740,36.8455
2023-11-01T06:54:49,2420,42.8014,5.9826,13.2977,4.42440,2453.717,36.8436
2023-11-01T06:57:49,2420,42.8014,5.9826,13.2975,4.42331,2453.762,36.8334
2023-11-01T07:00:49,2420,42.8014,5.9826,13.2978,4.42455,2453.785,36.8448
2023-11-01T07:03:49,2420,42.8014,5.9826,13.2978,4.42380,2453.762,36.8378
2023-11-01T07:06:49,2420,42.8014,5.9826,13.2978,4.42395,2453.785,36.8392
2023-11-01T07:09:49,2420,42.8014,5.9826,13.2978,4.42381,2453.762,36.8378
2023-11-01T07:12:49,2420,42.8014,5.9826,13.2976,4.42415,2453.762,36.8412
2023-11-01T07:15:49,2420,42.8014,5.9826,13.2979,4.42474,2453.785,36.8465
2023-11-01T07:18:49,2420,42.8014,5.9826,13.2978,4.42480,2453.770,36.8472
2023-11-01T07:21:49,2420,42.8014,5.9826,13.2977,4.42464,2453.748,36.8457
2023-11-01T07:24:49,2420,42.8014,5.9826,13.2974,4.42491,2453.785,36.8485
2023-11-01T07:27:49,2420,42.8014,5.9826,13.2976,4.42440,2453.807,36.8435
2023-11-01T07:30:49,2420,42.8014,5.9826,13.2977,4.42506,2453.807,36.8497
2023-11-01T07:33:49,2420,42.8014,5.9826,13.2978,4.42461,2453.785,36.8454
2023-11-01T07:36:49,2420,42.8014,5.9826,13.2978,4.42517,2453.807,36.8506
2023-11-01T07:39:49,2420,42.8014,5.9826,13.2978,4.42471,2453.785,36.8463
2023-11-01T07:42:49,2420,42.8014,5.9826,13.2978,4.42491,2453.785,36.8482
2023-11-01T07:45:49,2420,42.8014,5.9826,13.2979,4.42495,2453.785,36.8484
2023-11-01T07:48:49,2420,42.8014,5.9826,13.2976,4.42518,2453.807,36.8509
2023-11-01T07:51:49,2420,42.8014,5.9826,13.2979,4.42531,2453.815,36.8517
2023-11-01T07:54:49,2420,42.8014,5.9826,13.2979,4.42526,2453.807,36.8513
2023-11-01T07:57:49,2420,42.8014,5.9826,13.2978,4.42550,2453.785,36.8537
2023-11-01T08:00:49,2420,42.8014,5.9826,13.2978,4.42489,2453.830,36.8480
2023-11-01T08:03:49,2420,42.8014,5.9826,13.2979,4.42527,2453.807,36.8515
2023-11-01T08:06:49,2420,42.8014,5.9826,13.2975,4.42513,2453.793,36.8505
2023-11-01T08:09:49,2420,42.8014,5.9826,13.2981,4.42530,2453.853,36.8515
2023-11-01T08:12:49,2420,42.8014,5.9826,13.2978,4.42551,2453.830,36.8538
2023-11-01T08:15:49,2420,42.8014,5.9826,13.2978,4.42584,2453.830,36.8568
2023-11-01T08:18:49,2420,42.8014,5.9826,13.2975,4.42531,2453.830,36.8521
2023-11-01T08:21:49,2420,42.8014,5.9826,13.2978,4.42649,2453.830,36.8630
2023-11-01T08:24:49,2420,42.8014,5.9826,13.2974,4.42406,2453.807,36.8405
2023-11-01T08:27:49,2420,42.8014,5.9826,13.2983,4.42629,2453.853,36.8606
2023-11-01T08:30:49,2420,42.8014,5.9826,13.2979,4.42505,2453.853,36.8494
2023-11-01T08:33:49,2420,42.8014,5.9826,13.2977,4.42587,2453.807,36.8573
2023-11-01T08:36:49,2420,42.8014,5.9826,13.2979,4.42514,2453.830,36.8502
2023-11-01T08:39:49,2420,42.8014,5.9826,13.2979,4.42603,2453.793,36.8586
2023-11-01T08:42:49,2420,42.8014,5.9826,13.2978,4.42601,2453.853,36.8585
2023-11-01T08:45:49,2420,42.8014,5.9826,13.2979,4.42446,2453.853,36.8439
2023-11-01T08:48:49,2420,42.8014,5.9826,13.2979,4.42506,2453.853,36.8495
2023-11-01T08:51:49,2420,42.8014,5.9826,13.2979,4.42528,2453.807,36.8515
2023-11-01T08:54:49,2420,42.8014,5.9826,13.2974,4.42635,2453.867,36.8621
2023-11-01T08:57:49,2420,42.8014,5.9826,13.2980,4.42580,2453.845,36.8563
2023-11-01T09:00:49,2420,42.8014,5.9826,13.2978,4.42523,2453.830,36.8512
2023-11-01T09:03:49,2420,42.8014,5.9826,13.2978,4.42634,2453.853,36.8616
2023-11-01T09:06:49,2420,42.8014,5.9826,13.2978,4.42636,2453.830,36.8618
2023-11-01T09:09:49,2420,42.8014,5.9826,13.2980,4.42511,2453.853,36.8498
2023-11-01T09:12:49,2420,42.8014,5.9826,13.2978,4.42554,2453.875,36.8541
2023-11-01T09:15:49,2420,42.8014,5.9826,13.2976,4.42584,2453.830,36.8571
2023-11-01T09:18:49,2420,42.8014,5.9826,13.2978,4.42630,2453.875,36.8612
2023-11-01T09:21:49,2420,42.8014,5.9826,13.2980,4.42501,2453.853,36.8489
2023-11-01T09:24:49,2420,42.8014,5.9826,13.2975,4.42593,2453.853,36.8581
2023-11-01T09:27:49,2420,42.8014,5.9826,13.2975,4.42496,2453.853,36.8489
2023-11-01T09:30:49,2420,42.8014,5.9826,13.2979,4.42613,2453.853,36.8595
2023-11-01T09:33:49,2420,42.8014,5.9826,13.2979,4.42480,2453.875,36.8469
2023-11-01T09:36:49,2420,42.8014,5.9826,13.2980,4.42603,2453.875,36.8584
2023-11-01T09:39:49,2420,42.8014,5.9826,13.2978,4.42649,2453.853,36.8630
2023-11-01T09:42:49,2420,42.8014,5.9826,13.2979,4.42575,2453.853,36.8559
2023-11-01T09:45:49,2420,42.8014,5.9826,13.2975,4.42656,2453.830,36.8639
2023-11-01T09:48:49,2420,42.8014,5.9826,13.2978,4.42704,2453.875,36.8681
2023-11-01T09:51:49,2420,42.8014,5.9826,13.2979,4.42622,2453.875,36.8603
2023-11-01T09:54:49,2420,42.8014,5.9826,13.2978,4.42638,2453.875,36.8620
2023-11-01T09:57:49,2420,42.8014,5.9826,13.2980,4.42679,2453.861,36.8656
2023-11-01T10:00:49,2420,42.8014,5.9826,13.2973,4.42670,2453.890,36.8654
2023-11-01T10:03:49,2420,42.8014,5.9826,13.2978,4.42598,2453.875,36.8582
2023-11-01T10:06:49,2420,42.8014,5.9826,13.2976,4.42638,2453.853,36.8621
2023-11-01T10:09:49,2420,42.8014,5.9826,13.2978,4.42627,2453.830,36.8609
2023-11-01T10:12:49,2420,42.8014,5.9826,13.2978,4.42668,2453.853,36.8648
2023-11-01T10:15:49,2420,42.8014,5.9826,13.2978,4.42664,2453.853,36.8644
2023-11-01T10:18:49,2420,42.8014,5.9826,13.2978,4.42634,2453.853,36.8616
2023-11-01T10:21:50,2420,42.8014,5.9826,13.2979,4.42666,2453.853,36.8645
2023-11-01T10:24:49,2420,42.8014,5.9826,13.2976,4.42670,2453.853,36.8651
2023-11-01T10:27:49,2420,42.8014,5.9826,13.2976,4.42664,2453.853,36.8646
2023-11-01T10:30:49,2420,42.8014,5.9826,13.2977,4.42631,2453.830,36.8614
2023-11-01T10:33:49,2420,42.8014,5.9826,13.2979,4.42646,2453.853,36.8626
2023-11-01T10:36:49,2420,42.8014,5.9826,13.2973,4.42649,2453.815,36.8634
2023-11-01T10:39:49,2420,42.8014,5.9826,13.2980,4.42573,2453.815,36.8556
2023-11-01T10:42:49,2420,42.8014,5.9826,13.2976,4.42627,2453.830,36.8611
2023-11-01T10:45:49,2420,42.8014,5.9826,13.2978,4.42558,2453.807,36.8545
2023-11-01T10:48:49,2420,42.8014,5.9826,13.2976,4.42640,2453.807,36.8623
2023-11-01T10:51:49,2420,42.8014,5.9826,13.2980,4.42603,2453.830,36.8585
2023-11-01T10:54:49,2420,42.8014,5.9826,13.2975,4.42606,2453.815,36.8593
2023-11-01T10:57:50,2420,42.8014,5.9826,13.2978,4.42635,2453.853,36.8617
2023-11-01T11:00:49,2420,42.8014,5.9826,13.2979,4.42582,2453.853,36.8565
2023-11-01T11:03:49,2420,42.8014,5.9826,13.2978,4.42578,2453.807,36.8563
2023-11-01T11:06:49,2420,42.8014,5.9826,13.2978,4.42641,2453.838,36.8623
2023-11-01T11:09:49,2420,42.8014,5.9826,13.2975,4.42525,2453.807,36.8516
2023-11-01T11:12:49,2420,42.8014,5.9826,13.2975,4.42598,2453.807,36.8585
2023-11-01T11:15:49,2420,42.8014,5.9826,13.2976,4.42536,2453.830,36.8525
2023-11-01T11:18:49,2420,42.8014,5.9826,13.2978,4.42584,2453.793,36.8570
2023-11-01T11:21:49,2420,42.8014,5.9826,13.2977,4.42603,2453.830,36.8588
2023-11-01T11:24:49,2420,42.8014,5.9826,13.2982,4.42502,2453.807,36.8489
2023-11-01T11:27:49,2420,42.8014,5.9826,13.2979,4.42536,2453.807,36.8523
2023-11-01T11:30:50,2420,42.8014,5.9826,13.2978,4.42564,2453.785,36.8550
2023-11-01T11:33:49,2420,42.8014,5.9826,13.2973,4.42517,2453.793,36.8510
2023-11-01T11:36:49,2420,42.8014,5.9826,13.2978,4.42535,2453.770,36.8523
2023-11-01T11:39:49,2420,42.8014,5.9826,13.2978,4.42533,2453.807,36.8521
2023-11-01T11:42:49,2420,42.8014,5.9826,13.2978,4.42578,2453.770,36.8563
2023-11-01T11:45:49,2420,42.8014,5.9826,13.2979,4.42569,2453.793,36.8554
2023-11-01T11:48:49,2420,42.8014,5.9826,13.2975,4.42603,2453.785,36.8590
2023-11-01T11:51:49,2420,42.8014,5.9826,13.2979,4.42623,2453.762,36.8604
2023-11-01T11:54:49,2420,42.8014,5.9826,13.2978,4.42555,2453.785,36.8541
2023-11-01T11:57:49,2420,42.8014,5.9826,13.2975,4.42572,2453.807,36.8561
2023-11-01T12:00:49,2420,42.8014,5.9826,13.2978,4.42582,2453.800,36.8567
2023-11-01T12:03:49,2420,42.8014,5.9826,13.2975,4.42576,2453.785,36.8564
2023-11-01T12:06:49,2420,42.8014,5.9826,13.2975,4.42506,2453.807,36.8498
2023-11-01T12:09:49,2420,42.8014,5.9826,13.2977,4.42578,2453.807,36.8564
2023-11-01T12:12:49,2420,42.8014,5.9826,13.2977,4.42597,2453.748,36.8582
2023-11-01T12:15:49,2420,42.8014,5.9826,13.2977,4.42502,2453.762,36.8494
2023-11-01T12:18:49,2420,42.8014,5.9826,13.2974,4.42536,2453.762,36.8528
2023-11-01T12:21:49,2420,42.8014,5.9826,13.2978,4.42539,2453.785,36.8527
2023-11-01T12:24:49,2420,42.8014,5.9826,13.2979,4.42511,2453.748,36.8499
2023-11-01T12:27:49,2420,42.8014,5.9826,13.2977,4.42504,2453.777,36.8495
2023-11-01T12:30:49,2420,42.8014,5.9826,13.2976,4.42504,2453.762,36.8496
2023-11-01T12:33:49,2420,42.8014,5.9826,13.2978,4.42548,2453.762,36.8536
2023-11-01T12:36:49,2420,42.8014,5.9826,13.2974,4.42583,2453.762,36.8572
2023-11-01T12:39:49,2420,42.8014,5.9826,13.2978,4.42468,2453.785,36.8461
2023-11-01T12:42:49,2420,42.8014,5.9826,13.2978,4.42485,2453.785,36.8476
2023-11-01T12:45:49,2420,42.8014,5.9826,13.2977,4.42478,2453.762,36.8471
2023-11-01T12:48:49,2420,42.8014,5.9826,13.2981,4.42517,2453.762,36.8503
2023-11-01T12:51:49,2420,42.8014,5.9826,13.2974,4.42451,2453.762,36.8448
2023-11-01T12:54:49,2420,42.8014,5.9826,13.2976,4.42462,2453.785,36.8457
2023-11-01T12:57:49,2420,42.8014,5.9826,13.2975,4.42592,2453.785,36.8579
2023-11-01T13:00:49,2420,42.8014,5.9826,13.2979,4.42519,2453.762,36.8507
2023-11-01T13:03:49,2420,42.8014,5.9826,13.2978,4.42585,2453.740,36.8570
2023-11-01T13:06:49,2420,42.8014,5.9826,13.2976,4.42512,2453.740,36.8503
2023-11-01T13:09:49,2420,42.8014,5.9826,13.2975,4.42614,2453.740,36.8600
2023-11-01T13:12:49,2420,42.8014,5.9826,13.2974,4.42611,2453.762,36.8598
2023-11-01T13:15:49,2420,42.8014,5.9826,13.2979,4.42521,2453.725,36.8510
2023-11-01T13:18:49,2420,42.8014,5.9826,13.2979,4.42485,2453.754,36.8475
2023-11-01T13:21:49,2420,42.8014,5.9826,13.2975,4.42516,2453.754,36.8508
2023-11-01T13:24:49,2420,42.8014,5.9826,13.2975,4.42476,2453.740,36.8471
2023-11-01T13:27:49,2420,42.8014,5.9826,13.2974,4.42591,2453.762,36.8579
2023-11-01T13:30:49,2420,42.8014,5.9826,13.2973,4.42528,2453.748,36.8521
2023-11-01T13:33:49,2420,42.8014,5.9826,13.2979,4.42514,2453.740,36.8503
2023-11-01T13:36:49,2420,42.8014,5.9826,13.2980,4.42575,2453.717,36.8559
2023-11-01T13:39:49,2420,42.8014,5.9826,13.2978,4.42525,2453.717,36.8514
2023-11-01T13:42:49,2420,42.8014,5.9826,13.2976,4.42533,2453.717,36.8524
2023-11-01T13:45:49,2420,42.8014,5.9826,13.2979,4.42461,2453.717,36.8453
2023-11-01T13:48:49,2420,42.8014,5.9826,13.2979,4.42528,2453.740,36.8516
2023-11-01T13:51:49,2420,42.8014,5.9826,13.2978,4.42552,2453.740,36.8539
2023-11-01T13:54:49,2420,42.8014,5.9826,13.2977,4.42451,2453.740,36.8446
2023-11-01T13:57:49,2420,42.8014,5.9826,13.2978,4.42529,2453.740,36.8517
2023-11-01T14:00:49,2420,42.8014,5.9826,13.2977,4.42646,2453.702,36.8629
2023-11-01T14:03:49,2420,42.8014,5.9826,13.2976,4.42592,2453.740,36.8578
2023-11-01T14:06:49,2420,42.8014,5.9826,13.2970,4.42484,2453.740,36.8483
2023-11-01T14:09:49,2420,42.8014,5.9826,13.2978,4.42555,2453.717,36.8542
2023-11-01T14:12:49,2420,42.8014,5.9826,13.2973,4.42553,2453.740,36.8545
2023-11-01T14:15:49,2420,42.8014,5.9826,13.2980,4.42542,2453.725,36.8528
2023-11-01T14:18:49,2420,42.8014,5.9826,13.2977,4.42584,2453.717,36.8571
2023-11-01T14:21:49,2420,42.8014,5.9826,13.2979,4.42586,2453.717,36.8570
2023-11-01T14:24:50,2420,42.8014,5.9826,13.2972,4.42650,2453.695,36.8637
2023-11-01T14:27:49,2420,42.8014,5.9826,13.2977,4.42549,2453.717,36.8537
2023-11-01T14:30:49,2420,42.8014,5.9826,13.2976,4.42498,2453.717,36.8490
2023-11-01T14:33:49,2420,42.8014,5.9826,13.2976,4.42557,2453.695,36.8546
2023-11-01T14:36:49,2420,42.8014,5.9826,13.2979,4.42571,2453.695,36.8556
2023-11-01T14:39:49,2420,42.8014,5.9826,13.2975,4.42596,2453.672,36.8583
2023-11-01T14:42:49,2420,42.8014,5.9826,13.2976,4.42581,2453.702,36.8568
2023-11-01T14:45:49,2420,42.8014,5.9826,13.2976,4.42559,2453.717,36.8548
2023-11-01T14:48:49,2420,42.8014,5.9826,13.2974,4.42526,2453.680,36.8518
2023-11-01T14:51:49,2420,42.8014,5.9826,13.2975,4.42543,2453.649,36.8534
2023-11-01T14:54:49,2420,42.8014,5.9826,13.2975,4.42567,2453.672,36.8556
2023-11-01T14:57:49,2420,42.8014,5.9826,13.2979,4.42553,2453.641,36.8540
2023-11-01T15:00:49,2420,42.8014,5.9826,13.2976,4.42589,2453.649,36.8576
2023-11-01T15:03:49,2420,42.8014,5.9826,13.2975,4.42665,2453.649,36.8649
2023-11-01T15:06:49,2420,42.8014,5.9826,13.2977,4.42667,2453.627,36.8649
2023-11-01T15:09:49,2420,42.8014,5.9826,13.2975,4.42635,2453.672,36.8621
2023-11-01T15:12:49,2420,42.8014,5.9826,13.2975,4.42514,2453.635,36.8506
2023-11-01T15:15:49,2420,42.8014,5.9826,13.2977,4.42604,2453.627,36.8590
2023-11-01T15:18:49,2420,42.8014,5.9826,13.2977,4.42640,2453.627,36.8623
2023-11-01T15:21:49,2420,42.8014,5.9826,13.2975,4.42523,2453.649,36.8515
2023-11-01T15:24:49,2420,42.8014,5.9826,13.2975,4.42571,2453.664,36.8560
2023-11-01T15:27:49,2420,42.8014,5.9826,13.2977,4.42539,2453.672,36.8529
2023-11-01T15:30:49,2420,42.8014,5.9826,13.2975,4.42530,2453.627,36.8521
2023-11-01T15:33:49,2420,42.8014,5.9826,13.2979,4.42597,2453.649,36.8580
2023-11-01T15:36:49,2420,42.8014,5.9826,13.2976,4.42473,2453.672,36.8467
2023-11-01T15:39:49,2420,42.8014,5.9826,13.2977,4.42534,2453.627,36.8524
2023-11-01T15:42:49,2420,42.8014,5.9826,13.2979,4.42439,2453.672,36.8433
2023-11-01T15:45:49,2420,42.8014,5.9826,13.2978,4.42456,2453.627,36.8450
2023-11-01T15:48:49,2420,42.8014,5.9826,13.2979,4.42491,2453.627,36.8481
2023-11-01T15:51:49,2420,42.8014,5.9826,13.2978,4.42418,2453.649,36.8413
2023-11-01T15:54:49,2420,42.8014,5.9826,13.2977,4.42491,2453.649,36.8483
2023-11-01T15:57:49,2420,42.8014,5.9826,13.2975,4.42506,2453.635,36.8500
2023-11-01T16:00:49,2420,42.8014,5.9826,13.2977,4.42504,2453.627,36.8495
2023-11-01T16:03:49,2420,42.8014,5.9826,13.2975,4.42475,2453.627,36.8470